Regional Weather Roundup
Issued by NWS

Home | Current Version | Previous Version | Graphics & Text | Print | Product List | Glossary Off
Versions: 1 2 3 4 5 6 7 8 9 10 11 12 13 14 15 16 17 18 19 20 21 22 23 24 25 26 27 28 29 30 31 32 33 34 35 36 37 38 39 40 41 42 43 44 45 46 47 48 49 50

000
ASUS43 KFSD 181410
RWRSD

WEATHER ROUNDUP FOR SOUTH DAKOTA
NATIONAL WEATHER SERVICE SIOUX FALLS SD
800 AM CST WED JAN 18 2017

NOTE: "FAIR" INDICATES FEW OR NO CLOUDS BELOW 12,000 FEET WITH NO
SIGNIFICANT WEATHER AND/OR OBSTRUCTIONS TO VISIBILITY.


SDZ001>005-009-010-012>017-181500-
NORTHWEST AND NORTH CENTRAL SOUTH DAKOTA

CITY           SKY/WX    TMP DP  RH WIND       PRES   REMARKS
BUFFALO          N/A     35  21  56 W9        29.68F WCI  28
FAITH            N/A     30  20  66 W8        29.78F WCI  22
MOBRIDGE       FAIR      17  10  74 SE7       29.78S WCI   8
$$

SDZ012>016-024>037-041>051-057-063-072>074-181500-
SOUTHWEST AND SOUTH CENTRAL SOUTH DAKOTA

CITY           SKY/WX    TMP DP  RH WIND       PRES   REMARKS
RAPID CTY ARPT FAIR      26  18  71 CALM      29.77F
PIERRE         FAIR      14  10  84 CALM      29.82F
CUSTER         FAIR      38  19  46 W8        29.84F
ELLSWORTH AFB  FAIR      32  23  69 SW10      29.76F WCI  24
PHILIP         FAIR      19  14  81 SW7       29.81F WCI  10
PINE RIDGE     FAIR      29  16  58 W10       29.85F WCI  20
SPEARFISH      FAIR      36  25  64 VRB3      29.80S
WINNER         FAIR      25  18  74 S6        29.83S WCI  18
$$

SDZ004>011-016>023-039-040-181500-
NORTHEAST SOUTH DAKOTA

CITY           SKY/WX    TMP DP  RH WIND       PRES   REMARKS
ABERDEEN       FAIR      15  10  80 S10       29.83S WCI   2
WATERTOWN      FAIR      16  13  88 S5        29.83F WCI   9
BROOKINGS      FAIR      20  18  92 SW8       29.86S WCI  10
SISSETON         N/A     37  21  52 NW9       29.80R
$$

SDZ017-020-022-023-036>040-048>070-181500-
SOUTHEAST SOUTH DAKOTA

CITY           SKY/WX    TMP DP  RH WIND       PRES   REMARKS
SIOUX FALLS    FAIR      20  19  96 N3        29.89R
HURON          FAIR      16  13  88 S7        29.85F WCI   6
CHAMBERLAIN    FAIR      19  17  91 CALM      29.85R
MITCHELL       FAIR      19  18  95 S5        29.88R WCI  12
YANKTON        FAIR      30  25  80 SE6       29.89F WCI  24
$$

ABBREVIATIONS USED IN REMARKS
   TC - TEMPERATURE IN CELSIUS
  WCI - WIND CHILL INDEX
   HX - HEAT INDEX
  VSB - VISIBILITY





USA.gov is the U.S. government's official web portal to all federal, state and local government web resources and services.